Home > Weather > Colonia > Past weeks

Flag for Micronesia Weather for the Past 2 Weeks in Colonia, Yap, Micronesia

Now
90 °F

Broken clouds.


Feels Like: 102 °F
Forecast: 81 / 92 °F
Wind: 9 mph from East

Location: Yap Island

Current Time: May 5, 2016 at 12:04:58 PM

Latest Report: May 5, 2016 at 10:50 AM


Visibility: 12 mi

Pressure: 29.90 "Hg

Humidity: 62%

Dew Point: 76 °F

Location of ColoniaLocation

Historic Weather in Colonia — Graph

°F

Colonia Temperature Yesterday

Maximum temperature yesterday: 93 °F (at 1:51 PM)
Minimum temperature yesterday: 78 °F (at 5:52 AM)
Average temperature yesterday: 85 °F

High & Low Weather Summary for the Past Weeks

 TemperatureHumidityPressure
High99 °F (May 3, 8:53 PM)94% (Apr 30, 9:53 PM)29.91 "Hg (Apr 30, 9:53 PM)
Low77 °F (Apr 24, 6:50 AM)46% (May 3, 8:53 PM)29.75 "Hg (Apr 27, 3:51 PM)
Average84 °F76%29.84 "Hg
* Reported Apr 20 10:51 AM — May 5 10:50 AM, Colonia, Weather by CustomWeather, © 2016

Note: Actual official high and low records may vary slightly from our data, if they occured in-between our weather recording intervals... More about our weather records

Advertising

Colonia Weather History for the Previous 24 Hours

Scroll right to see more
 ConditionsComfort  
Time TempWeatherWind HumidityBarometerVisibility
10:50 AM
Thu, May 5
90 °FBroken clouds.9 mph62%29.90 "Hg12 mi
9:54 AM90 °FBroken clouds.8 mph64%29.89 "Hg12 mi
8:53 AM87 °FBroken clouds.8 mph68%29.89 "Hg12 mi
7:54 AM84 °FBroken clouds.6 mph73%29.88 "Hg12 mi
6:54 AM81 °FPartly cloudy.5 mph79%29.86 "Hg12 mi
5:53 AM81 °FPartly cloudy.6 mph81%29.85 "Hg12 mi
4:52 AM80 °FPassing clouds.6 mph81%29.83 "Hg12 mi
3:51 AM80 °FPassing clouds.6 mph82%29.83 "Hg12 mi
2:53 AM80 °FPassing clouds.6 mph84%29.85 "Hg12 mi
1:52 AM80 °FPassing clouds.6 mph83%29.85 "Hg12 mi
12:50 AM80 °FPassing clouds.6 mph82%29.87 "Hg12 mi
11:50 PM
Wed, May 4
81 °FPassing clouds.6 mph80%29.88 "Hg12 mi
10:50 PM81 °FPassing clouds.6 mph80%29.88 "Hg12 mi
9:50 PM81 °FPassing clouds.6 mph80%29.88 "Hg12 mi
8:52 PM81 °FPassing clouds.5 mph79%29.86 "Hg12 mi
7:54 PM82 °FScattered clouds.6 mph78%29.84 "Hg12 mi
6:53 PM84 °FScattered clouds.8 mph74%29.81 "Hg12 mi
5:55 PM87 °FScattered clouds.8 mph67%29.80 "Hg12 mi
4:52 PM90 °FScattered clouds.8 mph62%29.79 "Hg12 mi
3:51 PM91 °FScattered clouds.9 mph60%29.82 "Hg12 mi
2:52 PM92 °FScattered clouds.8 mph57%29.83 "Hg12 mi
1:51 PM93 °FBroken clouds.8 mph58%29.83 "Hg12 mi
12:52 PM93 °FScattered clouds.8 mph58%29.85 "Hg12 mi
Weather by CustomWeather, © 2016

See weather overviewHow to use our weather pages